Location: Newark
(7.0858°N, 171.3717°E)
Time: 05:57:56
(UTC+00:00)

Courier 1B Rocket - Pass Details

Date: 29 November 2020
Orbit: 920 x 1202 km, 28.2° (Epoch: 20 January)

Event Time Altitude Azimuth Distance (km) Brightness Sun altitude
Rises 16:07:20 0° 260° (W) 3,991 - -34.1°
Reaches altitude 10° 16:10:16 10° 267° (W) 3,062 - -33.4°
Maximum altitude 16:17:24 41° 335° (NNW) 1,649 - -31.8°
Exits shadow 16:19:34 35° 11° (N) 1,835 6.3 -31.3°
Drops below altitude 10° 16:24:42 10° 44° (NE) 3,125 7.9 -30.1°
Sets 16:27:45 0° 51° (NE) 4,080 8.6 -29.4°
